Regional Weather Roundup
Issued by NWS

Home | Current Version | Previous Version | Text Only | Print | Product List | Glossary Off
Versions: 1 2 3 4 5 6 7 8 9 10 11 12 13 14 15 16 17 18 19 20 21 22 23 24 25 26 27 28 29 30 31 32 33 34 35 36 37 38 39 40 41 42 43 44 45 46 47 48 49 50

000
ASUS43 KLSX 272259
RWRMO

WEATHER SUMMARY FOR MISSOURI
NATIONAL WEATHER SERVICE SPRINGFIELD MO
600 PM CDT WED AUG 27 2014

NOTE: "FAIR" INDICATES FEW OR NO CLOUDS BELOW 12,000 FEET WITH NO
       SIGNIFICANT WEATHER AND/OR OBSTRUCTIONS TO VISIBILITY.
       CURRENT SKY AND/OR WEATHER CONDITIONS ARE NOT AVAILABLE FOR
       CHILLICOTHE AND FARMINGTON.

MOZ001>031-035>038-043-044-053-054-280000-
...NORTHERN AND WESTERN MISSOURI...

CITY           SKY/WX    TMP DP  RH WIND       PRES   REMARKS
KANSAS CTY INT PTSUNNY   84  70  62 E12       30.04F
KANSAS C DTWN  PTSUNNY   85  71  63 E13       30.02F HX  90
LEE`S SUMMIT   MOSUNNY   84  72  67 E12       30.04F
ST JOSEPH      PTSUNNY   80  72  76 SE6       30.04F
KIRKSVILLE     PTSUNNY   78  70  76 E3        30.08F

$$
MOZ066>068-077>081-088>096-101>105-280000-
...SOUTHWEST MISSOURI...

CITY           SKY/WX    TMP DP  RH WIND       PRES   REMARKS
SPRINGFIELD    CLOUDY    85  68  56 N7        30.04F
JOPLIN         MOSUNNY   90  66  45 VRB7      30.01F HX  92

$$
MOZ032>034-039>042-045>050-055>058-069>072-280000-
...CENTRAL MISSOURI...

CITY           SKY/WX    TMP DP  RH WIND       PRES   REMARKS
COLUMBIA       PTSUNNY   80  67  64 NE6       30.05F
JEFFERSON CITY PTSUNNY   83  65  54 CALM      30.02F
ROLLA          CLOUDY    75  67  76 N3        30.05S
SEDALIA        MOSUNNY   86  73  65 E8        30.06S HX  93
OSAGE BEACH    CLOUDY    82  68  61 CALM      30.04S

$$
MOZ051-052-059>065-280000-
...EAST CENTRAL MISSOURI...

CITY           SKY/WX    TMP DP  RH WIND       PRES   REMARKS
ST LOUIS INTL  TSTM      79  70  74 S7        30.06F
SPIRIT OF STL  CLOUDY    77  67  71 W6        30.06R THUNDER
ST CHARLES     MOSUNNY   81  66  60 SW5       30.05R

$$
MOZ072>076-082>087-097>100-106>115-280000-
...SOUTH CENTRAL AND SOUTHEAST MISSOURI...

CITY           SKY/WX    TMP DP  RH WIND       PRES   REMARKS
CAPE GIRARDEAU SUNNY     88  74  63 SE5       30.01S HX  96
FARMINGTON       N/A     81  70  69 CALM      30.08R
POPLAR BLUFF   MOSUNNY   91  69  48 S7        30.00F HX  96
WEST PLAINS    PTSUNNY   87  66  49 SE13G20   30.06R

$$



USA.gov is the U.S. government's official web portal to all federal, state and local government web resources and services.